Theta_e
322 321 320 319 319 320 321 322 323 322 323 322 321 319 319 319 319 319 320 320 320 321 321 321 321 321 320 320 319 320 319 317 316 317 317 314 311 314 321 323 324 325 327 329 329 329 328 326 326 324 324 323 324 323 323 322 322 322 322 321 321 320 319 318 318 317 317 316 316 316 316 314 314 314 315 315 314 314 314 314 314 314 313 313 313
321 320 319 318 319 320 320 320 320 321 322 322 321 319 319 318 317 318 319 320 320 321 320 320 319 319 320 320 320 320 319 317 315 315 316 316 310 311 316 320 324 324 325 326 329 330 328 327 326 325 323 324 323 323 322 323 322 322 322 322 320 320 319 318 317 317 316 316 315 316 315 314 314 314 314 314 314 313 314 313 313 313 313 313 312
321 320 319 319 319 319 320 320 319 319 321 321 322 319 318 317 317 317 318 319 320 319 318 319 319 320 320 321 321 321 319 319 316 316 316 316 312 309 312 317 321 324 325 325 327 330 330 328 326 325 326 324 324 323 323 323 323 322 322 322 321 320 320 319 317 317 316 315 316 315 315 314 314 313 313 313 313 312 313 313 313 313 312 312 312
322 321 320 320 319 318 319 319 319 320 321 321 320 319 318 318 318 318 318 320 320 319 320 318 318 319 319 320 320 321 320 318 317 316 316 315 314 313 313 313 318 320 323 324 325 328 330 330 327 325 324 324 324 324 323 323 322 321 321 322 321 321 320 320 318 317 317 316 315 315 314 314 314 313 312 313 313 312 312 312 312 312 312 312 312
322 322 320 321 320 319 319 319 320 320 321 321 321 319 318 317 317 318 318 318 318 318 320 320 319 318 318 320 320 320 320 318 318 317 316 316 316 314 315 313 312 316 318 320 324 326 329 330 328 326 325 324 324 325 324 323 323 322 321 321 321 320 320 320 318 317 318 317 315 314 314 313 313 313 312 312 312 312 311 312 312 311 312 312 311
323 322 322 321 320 320 319 319 318 319 319 319 319 318 317 316 316 317 316 315 315 316 316 318 318 317 317 318 318 319 320 318 316 316 316 316 315 316 314 313 313 314 314 316 319 323 327 330 329 326 324 324 324 324 324 324 324 323 322 322 322 320 320 320 318 317 317 317 316 314 314 313 312 312 312 311 312 311 311 311 311 310 311 310 310
324 322 321 320 320 320 319 319 318 318 318 318 319 318 317 316 315 317 316 314 314 316 317 317 317 318 318 317 318 318 317 319 318 316 316 316 316 315 315 314 310 313 317 314 314 318 322 327 329 326 325 324 325 325 325 324 324 323 323 322 322 322 320 320 319 317 317 316 315 314 314 314 312 312 312 311 311 311 311 311 311 310 310 310 310
325 323 321 321 320 320 320 321 320 319 318 317 318 317 316 317 316 316 314 314 314 314 315 317 317 318 317 317 317 317 317 317 317 317 317 316 315 315 313 313 312 310 311 314 315 316 319 321 327 327 327 325 325 325 325 325 325 325 323 323 322 321 321 320 319 318 318 316 315 314 314 313 313 311 312 311 311 311 311 310 311 311 310 310 310
327 325 322 321 320 320 321 321 322 320 318 317 317 317 316 317 316 316 316 314 314 315 315 316 317 318 317 317 318 318 318 317 317 317 317 316 315 314 314 313 312 312 310 309 312 314 315 318 322 324 324 324 324 325 325 324 325 324 323 323 322 322 320 319 319 318 317 316 315 314 313 313 313 312 312 311 311 310 310 310 311 310 310 310 310
329 327 324 323 321 320 321 322 322 321 320 318 317 317 317 318 316 316 316 315 314 315 315 316 318 318 317 317 317 317 317 317 318 314 316 315 315 313 314 314 314 312 311 311 310 313 312 314 317 319 318 319 325 325 326 324 324 323 322 322 322 321 320 319 317 316 316 316 316 314 313 313 312 312 312 312 311 311 310 310 311 310 310 310 310
328 328 326 324 321 321 321 321 321 321 320 320 318 318 317 317 317 316 316 316 316 315 316 317 318 317 317 317 317 317 318 318 317 315 316 316 316 315 315 314 314 312 313 311 310 313 312 311 311 310 313 315 322 324 324 324 322 323 323 323 322 322 321 319 317 316 315 316 316 314 313 313 313 312 312 312 312 311 311 310 311 311 310 310 310
328 328 327 325 324 321 321 321 321 321 320 319 318 318 317 316 315 316 315 316 316 317 316 314 314 316 315 317 317 316 316 316 317 317 316 316 317 315 314 314 313 313 312 312 312 312 313 312 311 312 311 312 315 320 322 323 322 322 323 323 323 322 321 319 318 316 315 315 315 314 313 313 313 312 312 312 312 312 311 311 311 311 311 310 310
327 328 327 324 325 323 321 321 321 320 320 319 319 319 319 318 316 315 315 315 315 317 316 314 312 312 312 314 315 316 316 316 317 317 316 315 315 314 313 313 312 312 312 312 312 311 313 312 311 311 311 310 310 313 316 319 319 322 322 322 322 322 321 320 319 318 316 315 314 314 314 313 313 312 312 312 311 312 311 311 311 311 310 310 310
326 327 326 326 325 324 321 321 321 321 320 319 319 317 318 318 318 316 316 315 314 316 317 316 312 311 308 310 310 312 315 315 316 317 317 316 315 313 312 312 311 311 311 311 311 311 311 312 311 311 311 310 309 309 310 311 313 320 322 321 320 321 321 321 320 318 317 316 314 314 314 314 313 313 313 312 312 311 311 311 311 311 311 310 310
327 325 326 326 326 325 322 321 321 320 319 319 319 319 319 318 318 317 314 315 315 316 316 317 312 310 309 307 304 307 310 312 315 317 317 316 314 312 311 310 311 310 310 310 310 310 310 310 310 310 310 309 308 307 307 307 307 311 318 321 321 320 319 320 320 319 317 316 314 314 314 314 314 313 313 312 312 312 311 311 310 311 311 310 310
328 326 325 326 326 325 324 322 321 321 320 318 318 319 319 318 318 317 316 313 314 314 317 317 315 312 306 307 303 303 300 307 311 314 316 316 314 314 311 311 310 309 309 309 309 309 309 309 309 309 308 308 306 305 305 305 307 309 310 313 318 319 317 316 319 320 318 316 316 314 314 314 314 314 313 312 312 312 312 312 311 310 311 310 310
329 328 325 325 326 326 324 323 322 321 320 319 319 319 319 319 319 317 316 315 313 314 315 317 316 316 311 304 302 303 303 302 310 310 313 313 313 314 312 311 309 308 308 308 308 309 309 309 309 307 307 306 304 303 302 303 303 304 305 307 311 316 316 315 317 319 319 317 316 315 314 314 314 314 313 313 312 312 312 312 311 310 310 311 310
328 328 326 325 325 325 324 323 322 321 320 320 319 319 319 319 319 319 317 316 315 314 313 315 317 316 315 311 308 304 303 305 305 301 308 314 313 313 313 312 311 308 308 308 308 308 307 309 308 307 306 305 304 302 300 300 300 299 299 302 310 312 313 314 315 317 318 319 318 317 315 315 315 314 314 313 312 312 311 311 311 310 309 310 310
327 328 327 325 325 325 325 324 323 322 320 320 319 319 319 319 319 319 318 317 315 312 313 314 315 316 316 315 313 311 310 306 303 302 300 304 307 309 310 311 311 309 308 308 309 308 308 307 307 307 305 305 303 301 300 299 301 301 305 307 310 312 312 312 313 315 316 318 319 317 317 316 316 315 314 313 312 312 311 311 311 311 310 310 310
327 327 327 326 325 325 325 325 324 323 321 320 320 320 319 319 319 319 318 317 316 313 312 314 313 314 316 315 313 313 312 311 307 308 301 297 302 304 305 308 309 310 310 309 309 308 308 307 307 305 305 304 303 301 300 298 297 299 303 309 310 312 312 312 313 313 314 316 318 318 318 317 317 316 315 314 313 312 311 311 310 310 310 310 310
326 326 326 327 324 325 325 325 325 324 321 322 321 321 319 319 318 318 317 317 317 316 313 313 314 314 314 313 314 313 312 311 311 310 307 303 304 303 302 302 305 306 308 309 309 308 308 308 307 305 303 303 302 301 299 298 297 297 301 309 310 310 312 312 313 313 313 314 316 317 318 318 317 316 315 315 314 313 312 311 311 311 310 310 310
325 326 326 326 326 324 325 325 325 325 321 322 322 321 321 320 319 319 318 317 317 316 315 313 314 315 315 314 312 311 310 310 310 310 309 310 308 304 303 302 301 304 305 307 308 309 308 307 306 304 303 302 301 300 299 298 297 297 299 304 307 308 311 311 312 312 311 312 314 315 315 316 317 317 316 315 314 314 312 312 312 311 310 310 310
325 325 326 326 326 324 324 324 325 323 322 323 323 322 322 321 321 320 319 318 317 317 315 315 313 313 315 314 313 312 311 309 309 310 309 307 307 308 307 303 304 304 303 305 306 307 307 306 306 304 303 303 301 300 299 299 298 299 300 302 305 308 309 311 311 311 311 311 313 314 314 314 314 316 316 315 315 314 313 313 312 311 311 310 310
325 324 325 326 325 325 324 324 323 324 324 324 324 324 323 323 322 321 320 319 319 317 317 316 315 313 313 315 315 314 314 313 312 312 311 309 309 308 308 307 304 305 305 303 305 305 305 305 306 305 304 303 302 300 300 299 299 298 298 301 304 307 309 310 312 311 310 310 311 312 313 313 313 313 313 313 313 312 312 313 313 312 311 310 309
324 324 324 325 325 325 324 323 323 323 324 324 325 324 324 323 322 321 321 320 320 319 318 317 316 315 314 314 316 315 315 315 314 313 313 312 311 309 309 307 308 307 308 304 302 304 305 305 306 305 304 303 302 300 299 299 299 298 298 299 302 305 307 309 311 311 310 310 311 311 311 311 312 311 310 309 308 308 309 310 311 312 311 310 309
323 324 325 325 325 325 325 324 324 324 323 324 324 324 324 323 322 322 321 321 321 320 320 319 318 317 317 314 314 315 316 316 315 314 313 312 311 310 308 306 308 309 305 307 306 303 302 303 304 304 303 303 302 301 299 299 299 298 297 298 300 304 307 308 309 309 310 311 311 310 310 309 309 309 309 307 307 307 307 307 309 310 310 309 309
324 324 324 325 325 325 325 325 324 324 323 323 324 324 323 323 322 322 321 322 321 320 320 320 319 318 317 316 315 314 315 316 316 315 315 314 313 312 310 307 303 302 303 300 300 304 305 300 303 302 303 302 302 301 301 300 299 298 296 298 298 300 302 305 307 309 310 311 310 310 309 308 308 308 308 308 309 308 307 307 307 308 308 308 308
324 324 324 324 325 325 324 324 325 324 323 323 323 323 323 323 322 322 321 322 321 320 320 319 319 319 319 318 317 315 315 315 315 315 316 316 315 314 312 310 307 303 298 301 297 299 301 301 299 301 301 302 302 302 300 299 300 297 295 297 297 298 300 303 306 308 309 309 310 310 310 310 309 310 308 308 308 307 307 307 307 308 307 307 306
325 324 324 324 325 324 324 324 324 324 324 323 323 323 323 322 321 321 321 321 320 320 320 319 319 319 319 318 317 317 316 315 315 315 315 314 315 315 315 313 311 308 304 303 304 300 302 302 301 301 301 302 302 301 300 299 299 297 296 296 296 296 298 302 304 306 307 308 309 311 311 310 310 309 309 308 308 307 306 305 304 304 305 305 304
324 324 324 324 324 320 324 323 324 324 323 323 323 323 322 322 322 321 322 321 320 320 320 320 319 318 317 317 317 317 316 316 316 314 314 314 313 314 314 314 313 311 309 306 306 305 304 302 304 304 300 300 301 300 300 299 297 296 295 295 295 295 297 300 303 306 306 307 309 310 311 311 310 309 309 308 308 307 307 306 304 304 305 305 305
322 322 322 323 323 323 323 323 323 322 323 323 322 322 322 321 321 321 321 321 320 319 320 320 320 319 318 317 317 317 317 317 316 316 314 313 313 312 313 313 312 313 312 310 307 305 310 306 305 307 303 300 300 299 298 297 296 295 295 295 295 294 294 297 299 303 305 306 307 307 308 310 310 310 309 308 307 307 306 305 305 304 304 304 304
322 323 322 322 322 322 322 322 322 322 322 322 322 322 321 321 320 320 320 320 320 319 319 320 320 320 319 318 317 318 318 317 317 317 317 316 315 314 314 314 314 315 313 313 310 309 307 309 307 305 303 300 299 297 295 294 295 294 295 295 295 293 293 294 297 299 301 303 303 304 305 306 307 308 309 308 307 307 306 305 304 304 304 304 304
322 322 322 322 322 322 322 321 322 321 321 321 321 321 321 320 320 320 319 319 319 319 319 319 319 319 318 317 317 318 318 317 317 316 317 317 316 315 314 314 314 313 314 313 311 310 302 296 299 300 298 298 294 295 294 293 293 293 293 294 293 292 292 292 293 295 298 299 301 302 303 303 305 306 307 306 305 305 305 304 303 303 303 303 302
321 322 322 322 322 322 322 322 321 321 321 321 321 320 320 319 319 320 319 318 318 318 318 317 317 318 317 316 316 316 316 316 316 315 315 315 314 314 313 313 314 313 313 313 311 309 308 295 295 296 295 296 295 294 295 293 292 291 291 292 292 292 292 292 292 293 296 298 299 301 302 302 302 302 303 303 304 303 303 303 302 302 301 301 301
320 321 321 321 321 321 321 321 321 321 321 321 321 320 320 319 318 318 319 318 317 317 317 316 317 316 316 315 315 315 316 315 314 315 314 314 314 314 314 313 313 313 312 313 312 308 308 303 300 298 293 293 295 293 293 293 292 292 290 290 291 291 291 291 290 291 294 297 298 299 300 301 301 301 301 300 300 300 300 301 300 299 299 299 299
319 319 319 320 320 320 320 320 320 320 319 319 319 318 320 318 318 318 317 317 318 317 317 316 315 315 315 314 314 314 314 314 314 313 314 314 313 313 313 313 313 313 313 312 312 312 309 307 294 298 294 291 290 291 293 291 290 290 290 289 290 290 290 290 290 290 292 295 296 297 298 299 299 300 300 299 298 299 299 298 297 297 296 297 297
318 317 317 317 318 318 320 319 319 317 318 318 319 319 319 319 319 319 318 318 317 317 317 316 310 315 314 314 314 313 313 312 312 312 313 312 312 312 312 312 311 312 311 310 310 310 308 305 296 291 289 290 288 288 289 289 287 288 288 288 288 288 288 289 289 290 291 293 295 295 296 297 297 298 298 298 298 298 298 297 296 296 296 296 296
316 316 316 315 317 316 315 316 316 316 316 316 316 318 318 318 318 318 318 317 317 317 316 316 315 315 314 314 314 313 312 312 311 311 311 311 312 312 311 311 311 309 307 305 306 305 305 305 299 289 288 289 287 286 288 289 288 286 286 286 286 287 286 286 287 288 288 288 288 290 293 295 296 296 296 296 297 297 296 296 296 295 295 295 295
313 313 311 312 310 312 314 314 315 316 317 316 318 318 318 318 318 318 317 317 317 317 316 316 316 315 315 315 314 314 313 313 312 312 311 310 310 310 310 310 309 307 303 303 300 299 300 300 296 293 290 288 288 287 286 287 287 287 287 285 285 286 286 286 286 286 287 287 288 290 289 290 291 291 293 294 295 295 295 295 295 295 295 294 294
312 312 312 313 310 310 314 315 316 315 317 318 318 318 319 319 318 317 317 316 316 316 316 316 316 315 315 315 315 314 314 314 313 313 312 311 311 310 310 309 308 304 303 302 299 299 298 297 297 293 289 287 286 285 285 285 285 285 286 286 287 286 285 285 286 285 285 286 285 285 288 289 290 290 291 292 292 293 293 293 293 293 292 293 294
311 311 313 314 312 313 314 315 316 316 317 318 318 318 318 318 319 318 318 317 316 315 315 315 315 315 315 315 315 315 312 304 303 304 306 306 311 308 307 306 303 300 300 299 298 297 296 295 293 290 289 287 287 285 284 284 285 288 286 286 286 287 286 285 285 286 286 285 284 283 283 284 284 283 284 284 285 289 289 291 290 291 292 293 293
308 308 309 311 313 316 316 316 316 317 318 319 309 306 307 316 318 318 318 316 316 315 314 314 314 314 315 315 313 302 300 299 299 300 301 301 302 308 310 305 301 299 298 297 296 295 295 294 294 291 290 289 288 287 287 287 287 287 286 285 285 286 286 285 285 285 286 285 283 282 282 282 283 282 281 281 283 283 283 284 284 286 288 290 291
304 301 303 309 312 315 316 316 316 316 317 317 307 306 305 305 313 317 316 316 315 315 314 314 313 311 312 312 314 305 299 297 298 298 300 300 300 300 301 301 301 303 298 295 294 294 294 294 294 292 292 291 290 288 288 288 286 287 287 286 286 286 286 286 286 286 285 285 282 281 281 280 282 281 280 281 281 281 282 282 286 288 289 290 290
300 296 301 306 309 311 313 314 314 315 315 305 305 305 304 304 304 313 317 316 315 315 314 313 313 312 309 307 306 308 305 304 304 302 299 298 299 299 299 299 298 298 300 299 296 294 293 294 292 293 294 294 293 289 288 288 287 286 287 286 286 286 286 286 286 286 285 284 282 280 281 278 281 281 280 280 280 280 282 285 288 289 289 290 290
295 300 304 305 305 306 308 310 311 312 312 305 304 303 303 303 303 305 315 316 315 314 314 313 313 312 307 304 303 303 305 295 297 301 301 300 295 295 296 296 295 296 298 298 298 299 297 295 293 293 294 294 293 291 290 289 289 287 286 286 286 286 287 286 286 284 281 282 282 280 277 277 280 280 279 279 279 279 281 287 288 288 288 288 288
296 298 298 299 301 303 305 306 307 309 309 304 303 302 301 301 302 303 311 313 314 314 313 312 312 309 305 302 302 301 298 296 297 298 299 299 298 296 295 296 296 294 294 296 295 294 294 297 296 295 295 295 295 294 291 290 288 287 286 286 286 286 286 286 286 283 280 283 284 280 276 276 277 277 279 278 277 278 277 284 286 286 286 286 287
293 295 295 295 298 298 300 301 303 304 307 302 302 301 301 300 301 301 308 311 312 313 313 310 308 307 305 305 303 302 300 298 297 297 298 298 296 295 295 294 295 295 295 295 295 295 295 297 297 297 296 295 295 292 290 290 290 290 289 288 287 287 286 282 279 279 279 280 280 280 275 277 276 276 276 276 276 276 276 284 285 286 286 286 286
291 292 293 294 295 295 296 297 298 300 301 300 300 299 299 300 300 302 306 308 309 309 309 305 302 302 301 301 301 300 300 299 295 294 296 296 295 292 291 292 292 292 293 293 294 295 295 295 295 295 294 293 293 290 290 290 290 288 287 286 287 286 284 283 282 277 278 278 278 278 274 276 275 276 276 275 275 275 275 277 285 284 284 284 285
289 290 291 292 293 294 294 294 296 297 298 297 297 298 298 299 299 302 303 303 304 304 304 302 301 300 300 301 300 300 299 298 295 295 296 295 294 291 291 291 290 290 291 289 291 292 292 292 292 291 291 292 292 293 292 292 289 288 287 286 285 285 284 281 279 278 279 277 276 278 275 274 276 274 274 274 274 275 272 270 271 283 284 284 284
288 289 289 290 291 292 293 294 295 295 296 295 296 296 297 297 298 301 301 300 300 300 300 299 298 298 297 293 294 300 299 299 296 295 295 294 293 291 291 290 289 289 288 287 288 288 290 289 289 290 291 291 292 293 292 292 291 289 287 286 285 284 283 282 281 278 276 275 276 277 276 273 274 273 273 272 274 271 270 271 271 275 283 284 284
289 288 287 289 290 291 292 292 290 293 294 293 294 295 295 296 295 299 299 299 298 298 299 299 296 296 295 292 291 294 297 297 296 296 295 293 294 292 291 290 290 289 289 287 287 286 286 285 285 286 286 287 288 288 289 291 289 288 288 287 285 284 283 281 279 277 276 276 277 278 277 274 275 274 273 270 270 271 268 269 271 270 272 272 275
Wind_Speed
7 7 6 5 4 3 4 4 4 4 5 5 6 6 6 7 6 5 5 4 5 4 4 4 5 5 4 4 3 4 4 3 3 2 1 2 3 6 8 6 2 1 4 5 5 13 12 11 11 11 10 10 10 9 9 8 8 8 7 7 6 6 6 6 5 5 4 4 3 3 4 4 4 4 5 5 5 5 6 7 7 7 8 8 9
7 7 7 6 5 4 4 4 4 6 6 5 6 6 6 6 5 4 4 5 6 6 6 5 4 4 5 5 4 4 5 5 3 3 3 4 5 4 8 6 6 2 2 3 3 11 12 11 12 13 11 12 11 10 9 9 9 9 8 8 7 7 7 6 6 5 4 3 3 3 3 3 3 3 3 4 4 4 5 6 6 8 8 8 8
5 6 6 6 6 6 6 6 6 6 6 6 6 5 6 6 6 6 7 6 7 4 5 4 5 5 5 5 6 6 3 5 4 4 4 6 6 5 5 9 8 4 4 4 5 9 14 13 12 14 15 13 12 12 11 10 10 9 9 8 8 8 7 7 6 6 5 4 3 3 3 2 2 2 2 3 3 3 5 5 6 7 7 7 8
4 6 7 7 6 7 7 7 6 6 6 6 6 6 6 5 6 6 6 6 6 5 4 6 5 5 4 5 4 6 5 5 5 4 4 3 2 6 5 6 8 8 5 5 6 5 14 15 14 13 11 11 12 12 11 11 11 10 9 9 8 8 8 7 7 6 6 5 4 3 3 3 2 1 1 1 2 3 4 5 5 6 6 7 8
7 6 7 8 7 7 6 6 6 6 6 6 7 5 5 5 6 6 3 1 2 4 3 5 5 5 3 6 6 5 5 4 5 5 5 4 2 2 5 4 5 8 8 7 6 7 10 16 14 13 13 14 14 13 13 12 12 12 11 10 9 9 9 8 7 7 6 6 5 4 3 3 2 2 0 1 1 2 3 4 5 5 6 6 6
7 6 6 7 7 7 7 7 7 6 7 7 7 6 7 6 5 4 4 3 3 4 4 5 5 5 5 5 6 6 6 5 5 6 5 4 3 4 3 6 6 6 6 9 9 7 7 14 17 15 15 15 15 15 14 14 13 13 12 11 11 10 9 9 8 8 7 6 5 4 4 4 3 2 1 1 1 1 2 3 3 3 5 5 5
8 7 6 6 6 6 7 7 7 7 7 7 7 6 6 7 5 5 4 4 4 6 5 6 5 7 7 5 6 5 4 6 5 5 5 5 6 6 6 4 5 6 6 5 8 9 7 11 18 15 15 15 15 15 15 14 14 14 13 12 12 11 10 10 9 8 8 6 5 5 5 4 3 2 2 1 1 2 2 3 3 2 4 4 5
8 6 6 7 7 7 6 6 7 7 7 7 7 7 7 6 6 6 6 6 6 7 6 7 7 7 6 6 6 6 6 5 6 6 6 7 6 5 3 3 3 5 6 6 6 6 8 7 11 11 14 16 16 16 16 15 14 14 13 13 12 11 11 10 10 9 8 7 7 6 6 5 3 3 2 2 2 2 3 3 4 4 4 5 5
9 7 7 7 7 7 7 7 7 7 7 7 7 7 7 7 6 7 6 7 8 7 7 7 7 6 5 4 6 7 7 7 6 6 5 5 5 5 5 4 4 5 4 5 4 4 7 7 8 10 9 11 13 15 15 16 15 14 14 13 13 12 11 10 10 9 9 8 8 7 6 5 4 4 4 3 4 3 4 5 5 4 5 4 5
8 8 8 7 6 7 7 7 7 7 7 7 8 7 6 7 7 7 7 7 7 8 8 7 6 6 6 6 5 5 6 6 6 6 7 6 6 6 6 6 5 4 4 5 4 5 4 6 6 8 10 10 12 15 16 16 16 16 14 15 14 13 12 11 10 9 9 9 9 8 7 6 5 5 5 5 5 5 5 6 6 5 5 5 5
10 9 8 8 7 7 7 7 7 7 7 7 7 7 7 6 8 7 7 7 7 6 6 7 6 5 6 6 6 6 7 6 6 7 7 7 7 7 6 7 5 4 6 5 4 5 5 5 5 4 6 9 10 14 15 16 15 16 16 16 16 15 14 13 11 10 10 10 9 9 8 7 7 7 7 6 6 6 7 6 6 6 6 5 5
12 11 9 8 8 8 8 8 7 7 8 8 7 7 9 8 8 8 7 7 7 7 5 4 4 6 7 6 6 6 5 6 5 6 6 6 7 7 7 7 7 7 6 6 6 6 6 6 6 7 6 8 10 10 12 13 13 15 17 17 16 16 15 14 12 11 11 11 11 10 9 8 8 8 8 8 8 8 8 7 7 7 6 6 5
11 12 11 9 9 8 8 8 8 8 8 9 8 8 8 9 8 7 8 7 7 7 6 4 3 3 4 5 6 6 6 6 7 7 7 7 7 7 7 7 7 7 7 7 7 6 8 7 7 7 7 6 7 10 11 11 9 14 17 17 16 17 16 15 14 13 12 11 11 11 10 10 10 10 10 10 9 9 9 8 8 8 7 7 7
11 11 11 10 10 9 8 10 9 8 8 7 8 8 8 8 7 7 6 8 6 6 7 5 5 6 5 4 5 4 6 7 7 7 7 7 7 7 7 8 8 7 6 7 7 6 7 8 7 7 7 7 6 6 7 7 6 9 14 16 16 16 17 17 16 14 13 12 12 12 12 12 12 12 12 11 11 10 9 9 9 9 8 8 8
11 12 11 11 11 11 10 9 11 10 9 9 9 10 9 10 10 9 7 5 5 4 7 10 8 4 2 1 4 5 6 6 6 9 9 7 6 7 7 7 8 7 7 7 7 7 6 7 7 7 7 7 7 7 7 7 8 10 11 13 15 16 17 17 17 16 14 13 13 13 13 13 13 14 13 12 11 11 10 10 10 10 9 9 8
12 12 11 11 12 12 11 9 11 11 11 10 11 11 10 10 9 10 8 7 7 8 7 8 7 7 5 9 3 2 4 7 9 7 8 8 7 8 6 7 7 7 6 7 7 7 7 7 8 8 8 7 7 7 7 7 11 12 12 11 12 16 18 18 17 17 16 15 15 14 14 15 15 15 14 13 12 12 11 11 11 11 10 10 9
13 13 13 12 11 11 10 10 9 10 11 11 11 12 12 11 11 10 11 10 9 7 7 8 10 9 7 4 2 4 6 3 5 6 6 6 7 9 8 8 8 8 8 8 7 8 8 8 9 7 7 7 6 7 8 8 8 8 10 13 13 15 18 18 18 17 17 16 16 16 16 17 17 16 15 14 13 13 12 12 11 11 11 11 10
13 13 13 12 12 12 11 10 10 9 10 11 10 9 11 12 13 12 12 11 9 8 7 8 11 12 11 6 7 6 4 4 4 5 3 8 7 9 10 10 9 8 7 8 8 8 8 9 9 9 8 7 8 7 7 8 7 7 8 10 14 17 17 18 18 17 17 17 17 18 18 18 18 17 16 15 14 13 13 12 12 12 12 11 11
13 12 12 13 12 12 12 11 10 9 9 9 10 11 11 12 10 11 12 11 9 9 10 9 7 9 11 13 10 5 2 3 6 2 2 4 4 6 8 9 8 8 9 9 10 9 8 9 9 9 8 8 8 8 7 7 9 9 12 12 16 14 15 16 18 17 18 19 20 20 19 18 18 17 17 16 15 14 14 13 13 13 12 12 11
13 12 12 12 12 12 12 12 11 10 9 10 11 10 9 9 11 12 10 10 12 12 10 8 12 10 11 12 12 10 6 5 3 7 5 3 5 4 4 7 7 8 9 10 10 10 10 9 9 8 8 8 8 8 8 8 7 8 9 16 17 16 16 17 16 17 19 20 21 21 20 19 18 18 18 17 16 15 15 14 14 13 13 12 12
13 12 12 13 12 13 13 12 12 11 10 10 10 11 12 11 11 11 12 11 11 12 10 9 10 11 9 10 9 10 10 8 5 4 6 4 6 7 7 4 5 7 8 10 9 9 10 10 10 9 8 8 8 8 8 8 8 8 10 16 18 18 18 18 19 20 19 18 19 20 20 19 20 18 18 18 17 16 15 15 14 14 14 13 12
13 13 13 13 13 13 13 14 14 12 10 11 11 12 11 11 12 13 13 13 10 11 13 11 9 9 11 9 10 8 7 7 8 8 7 8 9 7 7 9 10 9 8 10 11 11 10 9 9 8 8 8 8 9 9 9 9 8 11 18 17 17 19 19 21 22 22 21 17 16 16 18 19 18 18 18 17 16 16 15 15 15 14 14 13
11 12 14 12 12 13 14 14 13 12 12 12 12 12 12 12 11 12 13 14 11 12 12 12 10 9 10 11 12 12 13 12 12 11 11 9 8 11 8 9 12 9 8 10 10 11 9 8 9 8 9 9 9 8 9 10 11 12 16 17 17 16 18 20 22 23 23 21 19 16 16 15 15 17 17 17 16 16 16 16 16 15 15 14 14
10 11 12 14 13 13 13 13 12 13 14 12 11 12 11 11 10 10 11 13 12 12 11 12 13 11 11 10 12 12 12 12 9 10 11 12 10 10 10 5 5 8 2 8 11 11 11 10 10 10 10 9 9 9 9 10 11 17 13 16 17 18 19 21 23 23 23 22 20 18 17 16 15 15 16 16 16 17 17 16 16 16 16 15 14
11 12 13 15 13 13 13 13 13 13 13 13 13 13 11 11 11 12 12 13 13 13 12 14 14 13 13 11 10 11 12 11 8 9 9 8 9 11 9 6 10 6 6 6 7 9 11 10 11 10 9 9 8 8 9 9 9 13 16 12 20 18 20 21 24 25 24 23 21 19 18 17 18 17 17 17 18 17 17 17 16 15 15 15 15
12 12 12 12 13 13 13 13 13 13 13 13 13 12 12 12 12 13 14 13 12 14 14 13 12 14 11 10 11 10 11 10 10 9 10 9 10 12 8 6 7 10 4 6 4 6 6 7 9 8 8 8 9 8 8 10 9 14 17 12 16 21 21 21 23 24 23 22 21 20 19 18 18 18 18 18 18 17 17 16 16 15 15 15 15
11 11 10 12 13 12 13 14 14 14 13 13 11 12 12 11 11 13 12 11 13 13 13 14 14 14 13 13 12 11 10 8 9 11 10 11 11 10 9 9 6 5 6 5 4 12 6 3 7 8 9 8 8 9 10 10 12 15 15 13 11 21 21 22 22 22 22 21 21 21 20 20 19 19 18 18 18 17 17 16 15 15 15 14 14
10 10 11 11 12 13 14 14 14 14 14 14 13 11 12 12 11 11 13 10 12 14 13 13 15 15 15 12 10 12 10 9 8 8 9 9 9 8 9 10 11 10 4 7 5 8 3 5 3 6 7 9 9 9 10 11 9 14 15 11 10 12 20 21 20 18 18 19 20 21 21 21 20 20 19 18 18 17 16 16 15 15 15 15 15
9 8 10 11 12 13 13 14 14 14 13 13 13 13 12 12 12 12 13 11 11 13 12 12 12 12 12 13 12 10 10 9 7 8 7 7 9 9 10 12 10 10 9 8 9 8 6 7 6 7 10 9 9 8 8 9 11 12 10 11 11 9 14 19 19 17 16 18 18 20 21 21 21 20 19 18 18 17 16 15 15 14 13 13 13
7 7 8 10 11 12 13 13 13 13 14 13 13 14 13 12 12 12 12 11 11 10 11 11 11 10 11 11 11 11 9 9 9 7 7 8 8 9 9 9 9 12 10 11 10 8 6 5 7 6 7 10 9 7 8 9 10 13 9 10 10 10 12 16 16 15 17 18 20 21 21 21 21 21 19 18 18 17 17 16 15 15 15 15 15
8 7 8 8 9 10 11 11 11 12 12 12 13 13 13 12 12 12 12 12 12 11 10 11 10 9 10 11 10 11 10 10 8 8 8 7 8 7 8 8 8 10 10 8 11 4 7 7 8 8 8 10 8 7 6 6 8 12 9 9 10 9 10 10 16 16 16 18 17 17 18 20 20 21 20 19 19 18 17 17 15 15 15 16 16
8 9 8 9 9 10 10 11 11 11 12 12 12 13 12 12 12 11 11 12 13 12 11 11 9 10 12 13 12 11 10 9 9 9 9 9 7 7 7 7 8 8 7 10 12 12 6 7 7 7 7 7 8 8 8 6 7 14 9 8 7 8 7 7 13 18 16 16 16 16 15 16 17 19 20 19 20 18 17 18 17 16 16 16 16
10 9 9 10 10 10 10 11 11 11 12 12 11 11 12 12 12 12 11 12 13 12 11 12 11 11 12 13 12 12 11 11 10 9 9 10 8 7 6 6 8 6 7 9 12 12 2 1 1 4 2 4 4 6 7 6 5 5 5 4 4 6 6 7 7 13 17 16 16 15 14 14 13 15 16 18 18 18 18 18 18 17 17 16 16
9 10 10 10 9 10 10 10 11 11 11 12 11 11 12 12 12 10 11 13 13 13 12 13 13 12 11 12 12 11 11 12 10 10 9 9 9 8 7 8 9 8 7 8 10 10 10 2 3 1 2 2 5 3 8 8 6 4 6 5 4 5 6 6 6 7 14 17 16 13 13 13 13 12 11 10 12 13 15 16 16 15 14 15 14
7 9 9 8 9 9 10 10 11 11 12 11 11 11 12 12 12 12 12 12 13 13 13 14 13 12 12 12 13 10 10 11 11 11 10 11 10 11 12 9 10 10 8 10 9 10 9 7 7 7 7 6 7 5 5 4 4 5 6 7 7 5 4 5 6 4 8 11 11 12 12 11 11 11 11 11 11 12 13 13 14 14 14 15 15
9 8 7 8 8 9 10 10 11 11 11 11 11 10 12 12 12 13 12 12 12 13 13 13 12 12 13 12 12 12 11 13 12 11 11 11 10 11 11 11 12 13 11 10 12 11 9 10 5 9 6 7 3 2 4 3 5 5 6 3 4 6 5 5 6 5 5 9 12 12 12 12 12 12 13 12 13 13 14 14 14 14 14 15 14
7 7 8 7 8 8 10 10 10 10 11 11 11 11 10 10 12 12 13 13 12 13 13 13 12 12 13 13 13 12 12 13 12 12 11 13 12 11 11 10 10 10 9 9 10 11 11 11 6 2 3 2 1 2 6 6 2 3 2 5 5 5 5 4 3 4 4 8 10 13 13 13 13 13 14 13 13 14 14 15 15 14 14 14 14
8 8 8 7 8 9 8 8 8 10 10 10 10 11 11 10 10 12 12 12 13 13 13 13 13 14 15 15 14 13 14 14 13 11 11 14 13 13 14 12 11 9 10 9 9 10 10 9 7 4 3 5 3 2 4 5 6 4 3 3 2 4 4 5 5 3 2 3 3 4 7 10 12 14 15 13 14 15 15 15 14 14 13 13 14
7 8 6 7 6 7 8 7 9 9 9 9 10 10 11 11 12 12 12 12 12 13 13 14 14 14 14 14 14 14 15 14 14 13 12 12 11 12 11 12 12 10 10 10 9 9 9 8 6 6 6 2 3 5 2 3 3 4 6 4 5 4 4 6 6 3 3 3 4 6 6 6 7 6 8 12 14 15 15 15 14 14 13 13 14
8 8 8 8 7 6 7 8 8 7 8 9 10 11 11 12 11 12 12 13 13 12 13 13 13 13 14 14 13 14 14 14 13 13 13 13 11 13 12 11 11 11 11 10 9 10 9 8 8 7 4 5 3 3 3 4 2 3 6 6 7 6 7 5 5 4 3 5 6 5 6 7 8 10 12 12 14 15 15 13 14 13 12 12 13
9 8 8 8 8 8 7 7 7 7 8 10 9 10 11 12 12 13 13 13 12 12 13 12 12 12 13 14 14 14 14 15 17 16 16 15 12 11 10 10 10 9 9 8 8 8 7 7 6 3 5 4 6 6 6 7 11 10 5 7 6 3 3 4 4 5 6 5 5 5 6 7 6 6 5 5 6 7 9 12 9 12 12 13 13
7 7 7 8 9 11 11 10 9 9 11 11 13 17 15 12 11 11 11 12 12 12 12 12 12 13 14 12 12 16 18 19 20 20 19 18 18 15 12 10 10 10 10 9 8 8 8 8 8 8 7 8 9 10 9 9 5 3 6 7 8 4 3 2 2 4 6 6 5 6 6 4 6 6 4 6 6 5 6 6 6 6 7 12 13
6 5 4 7 10 10 11 12 12 12 13 13 19 18 19 20 16 13 12 12 11 12 12 13 13 12 12 12 11 13 14 14 16 18 18 19 19 19 18 16 15 14 11 10 9 8 8 9 7 8 9 10 10 9 10 8 6 9 7 7 5 4 5 5 5 1 3 8 7 4 5 4 6 6 5 5 5 4 5 6 7 9 11 12 12
7 5 7 8 6 6 8 8 10 12 11 13 15 17 18 19 17 14 12 12 11 12 12 13 12 11 11 11 10 9 10 11 10 12 15 19 19 19 19 18 18 20 18 15 12 9 9 8 8 11 10 11 9 9 8 6 8 7 5 5 7 7 6 6 4 4 4 8 6 4 4 1 5 5 4 5 4 4 4 6 8 9 9 8 8
5 8 10 9 9 7 8 10 11 11 11 13 15 17 17 18 19 17 13 13 12 12 12 12 12 12 10 10 10 9 8 13 11 9 9 10 13 16 16 16 17 18 17 17 16 15 12 11 11 10 11 10 9 10 11 11 7 8 6 6 7 7 6 6 6 4 3 6 6 3 2 1 6 5 5 3 3 3 3 5 6 5 5 6 7
7 8 8 10 10 10 11 11 11 11 11 14 16 16 16 17 18 17 14 14 13 12 12 12 12 11 10 9 9 9 7 7 7 8 9 9 9 8 9 9 9 13 16 17 16 15 13 12 11 12 11 8 10 9 9 9 11 10 10 10 8 7 8 8 4 4 3 7 8 6 1 1 3 3 4 3 2 2 3 3 3 2 3 3 3
7 9 8 9 10 10 10 10 10 12 13 15 14 15 14 15 16 15 12 12 13 13 12 11 10 10 10 11 12 12 10 10 10 12 10 10 9 9 9 9 9 9 10 10 9 10 10 9 10 10 8 9 8 7 10 11 13 11 11 11 12 10 4 3 5 3 4 3 4 4 3 1 1 3 2 2 3 3 1 1 1 3 2 2 1
6 7 8 8 10 9 9 9 10 13 13 15 15 15 15 14 15 12 11 12 13 12 12 9 8 8 8 9 9 9 9 10 13 17 15 10 10 9 10 9 8 7 7 7 9 8 8 8 8 8 8 9 9 9 10 11 8 6 5 4 5 5 7 6 6 3 3 3 3 4 3 1 1 4 1 1 3 2 3 5 6 5 3 4 4
7 8 8 8 8 8 9 9 11 13 12 12 14 16 15 15 12 10 10 10 11 12 11 9 9 9 10 10 10 9 9 9 12 16 17 14 9 11 10 10 8 6 7 4 6 8 8 8 8 8 9 12 13 13 14 15 11 10 8 7 7 8 7 7 5 4 5 3 2 3 4 2 2 3 3 1 2 2 3 2 1 6 7 7 7
8 8 6 8 7 7 9 10 9 11 12 10 12 14 14 15 13 11 9 9 11 10 10 9 9 9 9 13 12 11 11 12 14 17 17 15 10 10 10 10 9 8 6 3 4 5 8 9 9 9 10 12 13 14 15 15 16 13 11 11 10 9 9 8 7 5 2 2 3 4 5 4 3 2 2 0 3 2 1 1 3 3 6 7 10
8 5 5 7 7 7 8 9 11 12 12 10 10 12 14 14 12 10 9 8 10 11 10 11 7 7 8 10 16 14 12 12 16 18 19 16 12 11 11 11 12 12 11 10 9 8 7 7 5 6 5 7 8 7 9 15 16 12 8 7 9 10 9 7 6 6 2 2 4 4 6 3 5 1 4 2 1 1 0 1 1 1 2 4 6
Wind_Direction
202 202 186 198 204 203 214 207 191 208 228 218 200 211 200 208 207 203 217 224 226 197 204 226 197 194 174 173 173 210 215 197 179 148 293 155 175 166 164 179 117 260 323 331 209 180 187 190 190 191 189 189 188 189 181 182 184 188 186 184 178 172 164 164 165 164 161 152 137 125 112 93 74 63 50 52 56 39 22 29 29 24 36 22 23
199 185 176 185 189 202 217 219 207 209 211 237 226 199 198 211 200 200 217 221 227 203 196 215 224 196 176 169 182 215 215 184 179 165 211 227 178 185 180 168 170 200 293 289 293 206 196 191 194 193 200 197 195 192 191 190 196 196 193 192 189 186 179 173 179 177 172 168 158 134 120 98 79 75 59 52 50 41 14 34 26 22 25 19 26
200 177 171 179 186 188 205 215 216 220 207 224 230 213 200 196 195 202 215 217 224 208 177 210 220 214 186 170 187 206 222 198 179 189 206 223 165 187 197 182 177 163 208 262 273 223 204 193 205 194 202 199 200 203 193 195 201 202 203 198 195 197 192 187 189 192 184 180 174 157 122 106 99 91 78 54 48 40 13 24 22 28 21 8 17
219 182 176 179 189 191 195 201 211 214 212 216 223 218 205 197 201 207 211 208 204 215 206 209 236 219 188 181 179 181 217 206 192 189 207 242 188 180 186 188 182 181 190 242 256 258 214 203 205 209 210 205 212 200 204 199 204 207 207 205 202 201 202 196 199 201 198 193 181 167 154 137 155 130 71 54 46 33 17 13 23 18 8 15 8
231 203 180 182 185 189 197 199 200 206 210 213 215 216 201 213 222 201 187 173 201 237 232 207 218 243 206 181 179 191 210 192 196 193 201 220 279 216 180 180 190 189 193 209 245 254 238 214 213 211 216 219 215 209 209 212 205 210 210 211 209 205 206 203 204 207 207 200 192 181 174 177 182 168 103 27 28 31 14 7 19 13 355 12 2
219 216 190 182 182 187 191 197 199 201 206 205 207 206 197 212 216 171 187 194 228 238 251 242 227 244 240 196 178 191 199 194 195 200 196 180 212 268 207 187 185 181 195 211 222 239 252 225 218 209 221 222 215 218 215 214 213 212 212 213 214 210 213 208 206 209 211 208 198 190 200 199 197 199 186 353 337 12 344 344 358 1 345 355 352
211 199 201 191 189 193 194 195 194 197 204 199 192 202 198 207 190 178 192 211 216 227 227 234 218 218 231 202 186 196 190 197 194 200 190 192 193 228 236 193 189 186 190 198 217 229 240 239 222 213 223 224 221 220 219 219 218 218 215 216 218 216 219 216 213 214 213 206 206 203 216 217 212 219 204 261 310 301 320 313 324 332 328 331 339
208 196 197 198 192 194 198 194 197 194 198 194 183 195 205 202 198 176 183 208 212 226 222 223 226 227 221 196 194 189 202 203 202 203 195 187 194 217 226 234 204 202 186 187 202 213 217 244 244 230 225 224 226 225 222 222 223 224 221 219 224 225 225 225 222 218 216 213 209 213 217 224 228 227 235 240 273 292 286 292 306 321 317 331 342
204 202 201 202 195 191 195 196 196 195 189 193 193 196 195 198 203 196 184 199 204 213 221 220 224 226 227 209 196 189 197 204 203 200 190 195 207 208 218 229 239 210 200 195 184 201 210 217 242 240 226 211 216 221 224 227 228 230 231 224 223 226 229 231 231 227 222 219 214 219 223 226 227 237 240 241 252 272 279 277 291 299 305 315 322
212 207 204 206 198 190 193 200 197 194 191 193 199 195 195 190 200 203 200 203 209 206 213 216 214 218 220 219 214 196 201 205 206 200 190 197 198 198 203 211 221 209 191 203 172 191 197 201 215 214 205 209 210 215 220 226 230 237 237 234 230 230 235 234 234 236 230 226 218 224 228 226 231 235 241 247 252 254 268 271 279 282 289 299 305
216 217 207 203 204 200 193 200 196 189 192 197 194 192 203 197 194 207 210 210 210 211 205 205 217 217 212 216 215 213 210 203 202 199 200 195 195 197 189 200 212 207 203 205 193 185 190 197 195 208 224 223 218 215 221 225 229 234 241 237 238 234 234 238 236 235 238 235 228 231 230 231 231 236 239 245 250 251 256 266 269 277 280 293 300
207 217 217 204 204 204 195 194 198 186 192 199 199 193 198 204 207 200 208 218 213 216 220 217 223 215 216 222 216 212 211 204 207 212 208 203 199 192 194 199 201 204 200 205 209 181 194 196 197 206 209 217 221 221 224 229 229 230 242 242 240 239 239 239 237 234 238 242 241 237 235 235 235 236 241 241 245 249 253 258 267 271 277 282 294
207 207 214 211 207 204 196 197 199 194 194 203 200 201 199 201 206 201 201 207 220 207 216 188 220 257 238 229 238 227 218 209 212 213 211 208 203 200 200 196 202 196 200 202 210 189 188 196 202 205 208 207 217 225 225 230 239 232 234 242 243 243 242 240 236 232 228 238 245 245 240 238 237 238 239 240 243 245 252 256 262 269 271 278 286
206 206 208 210 207 209 200 196 197 204 201 195 197 201 203 203 195 208 206 203 216 193 202 165 235 211 211 260 270 270 232 220 216 218 213 212 205 197 197 197 200 201 202 203 209 204 191 198 202 204 208 204 206 211 222 228 235 242 233 236 240 247 248 242 241 236 230 227 239 247 244 239 239 238 238 239 242 245 249 256 261 268 272 274 280
210 204 205 207 208 207 209 195 195 198 197 200 198 203 205 204 198 199 202 215 214 205 194 189 216 183 196 338 251 239 273 250 236 220 213 217 201 201 199 200 207 201 199 199 206 212 205 201 205 205 207 204 200 203 207 210 214 223 234 234 235 241 247 249 246 241 235 231 239 243 244 241 237 237 238 240 241 244 249 253 259 264 270 274 277
214 203 206 206 206 208 208 203 199 195 197 199 200 204 202 206 200 197 178 196 204 221 200 194 186 143 216 213 226 199 284 235 216 229 213 215 198 210 196 209 211 209 198 203 205 205 210 208 211 210 207 202 189 195 199 204 213 217 221 232 238 240 243 244 246 246 241 233 240 239 241 242 239 237 238 240 241 243 246 251 255 260 266 271 273
213 206 201 206 206 209 210 211 206 199 196 200 202 203 200 202 199 195 193 195 201 205 214 197 199 195 179 130 231 228 222 231 188 250 216 220 213 205 204 208 211 207 203 213 206 204 206 215 218 212 210 203 195 192 193 202 207 210 215 219 225 233 238 241 244 244 243 240 239 238 236 239 238 238 237 238 241 244 246 249 253 257 262 265 269
213 208 200 201 204 206 209 209 212 207 201 202 204 201 203 201 201 198 201 202 193 189 207 211 203 206 214 210 165 174 184 218 129 259 244 218 212 208 207 212 214 210 211 215 212 212 208 217 215 214 207 202 202 196 197 196 196 197 199 211 215 223 230 233 238 243 244 240 237 234 233 233 237 238 237 238 240 242 244 247 252 256 259 262 267
215 210 202 198 203 203 206 210 212 212 201 201 204 205 204 204 197 199 203 199 194 203 201 201 203 218 215 229 245 242 196 122 210 132 297 283 230 205 217 214 212 211 213 219 219 214 217 216 216 211 205 202 200 201 201 203 198 195 197 201 209 211 219 226 230 235 241 241 238 234 231 230 232 236 236 237 238 239 242 244 247 252 257 259 262
214 213 205 198 199 203 205 209 213 213 201 205 207 207 205 205 202 204 202 199 199 207 207 190 192 213 207 219 234 246 240 224 189 187 174 180 250 263 247 214 217 216 211 218 220 216 218 217 218 207 201 202 198 198 201 202 202 200 201 202 205 207 212 217 220 227 235 239 239 238 231 228 230 233 235 235 237 239 241 243 245 248 254 257 258
213 216 209 204 198 202 202 207 211 214 206 209 208 206 205 201 200 201 203 204 203 207 207 206 198 206 188 219 220 231 239 239 229 218 218 219 245 205 224 247 242 230 216 218 222 220 218 217 216 206 197 200 198 200 200 199 203 203 206 204 207 209 210 215 216 218 224 233 239 239 233 231 233 234 236 237 235 237 240 242 244 246 251 255 256
210 215 216 209 203 200 202 206 209 211 208 209 207 207 207 206 203 204 204 205 205 203 208 212 209 203 198 195 204 218 232 244 237 224 235 214 231 219 196 195 219 228 210 217 222 223 219 216 213 202 200 200 198 199 198 201 204 205 208 205 206 208 209 211 214 217 219 222 227 235 238 234 232 232 235 236 237 238 239 241 241 244 248 251 253
203 211 215 213 211 204 205 207 206 208 210 210 208 207 206 207 207 204 205 205 205 205 210 215 215 208 201 198 205 201 202 208 211 210 214 218 225 243 227 199 212 235 221 218 222 227 222 212 213 209 202 203 200 196 200 206 207 211 207 204 205 204 208 210 213 216 217 218 219 221 226 229 231 233 233 235 236 238 240 240 241 244 246 249 251
204 207 209 210 209 210 208 207 207 207 210 211 211 208 206 206 206 204 207 209 208 207 209 214 214 217 216 202 208 205 212 217 210 203 203 220 210 229 230 195 234 234 198 206 223 226 226 216 216 212 206 203 201 197 201 204 212 212 205 206 204 204 207 211 215 216 216 214 215 215 217 218 219 223 230 236 239 240 241 242 243 244 247 250 253
211 207 209 205 205 209 206 206 209 210 210 208 212 209 206 206 207 208 208 206 208 207 210 214 210 213 218 214 208 209 216 217 207 204 212 208 207 231 230 177 228 229 216 180 217 225 224 218 215 215 202 203 200 197 201 203 210 208 202 206 204 205 208 212 217 219 216 212 211 210 213 216 219 221 226 232 238 241 243 244 245 246 248 251 253
213 213 209 203 207 209 208 210 211 212 211 212 211 209 208 208 207 210 211 211 208 209 215 218 217 221 219 221 220 214 218 211 209 204 207 197 212 220 221 220 220 240 214 209 203 203 246 213 215 211 204 199 201 198 199 207 210 206 200 203 206 206 208 211 216 220 217 213 209 209 211 213 219 222 224 230 232 235 239 242 245 247 250 254 255
214 215 204 202 206 208 209 210 209 210 209 212 213 210 209 212 212 213 215 212 212 210 214 215 218 219 220 219 223 225 225 209 202 208 203 206 207 207 197 223 249 238 235 229 229 217 216 219 200 206 203 200 198 201 204 205 209 199 195 203 209 211 210 213 216 218 218 213 210 210 211 213 216 221 225 227 230 233 237 240 242 245 251 256 259
217 211 208 201 202 207 209 212 210 210 208 208 210 210 208 210 213 215 218 211 215 212 216 215 219 219 223 222 222 228 226 224 210 206 208 206 205 201 198 207 221 247 220 242 220 246 199 206 242 214 199 203 208 206 208 204 206 201 192 206 211 214 215 215 216 218 218 216 214 212 211 212 214 219 223 227 230 234 238 241 242 244 246 250 254
219 209 208 205 204 205 208 210 212 210 209 207 208 210 210 210 211 214 219 216 217 217 217 220 222 217 221 219 221 225 226 226 222 216 212 207 207 204 200 206 205 227 233 240 227 221 240 203 197 225 206 210 211 207 198 203 208 194 195 207 212 214 218 218 217 216 217 219 217 216 215 215 216 219 224 226 228 231 236 241 245 248 252 257 261
217 211 206 206 208 205 209 211 212 212 211 208 207 209 210 214 212 214 215 214 218 219 220 221 222 216 218 218 217 224 221 221 225 219 219 218 210 208 204 209 194 215 227 239 252 185 211 211 210 214 203 214 210 205 201 209 202 191 200 205 212 216 215 217 218 216 216 218 220 219 218 219 220 221 224 228 231 233 236 240 241 242 245 247 251
218 215 211 207 207 208 209 212 211 214 214 212 209 211 209 214 213 216 213 213 217 220 220 221 223 216 218 218 214 221 216 221 218 220 224 219 222 212 214 204 206 218 225 228 259 218 188 198 221 216 198 205 197 196 201 201 194 190 197 209 216 220 209 212 217 220 217 217 219 221 222 222 222 223 224 228 232 235 239 243 243 247 247 248 252
218 216 211 208 206 206 206 209 210 211 213 214 212 213 212 215 212 214 213 211 216 219 220 221 223 222 225 225 221 222 219 222 221 220 224 226 218 214 215 211 216 214 207 230 241 252 197 204 211 214 198 186 177 183 199 198 195 191 201 204 207 203 204 209 214 219 221 219 222 225 225 226 226 227 228 230 236 236 239 244 247 248 247 247 249
217 214 213 213 212 209 205 206 208 209 210 212 211 211 212 215 214 215 214 214 218 221 220 225 223 224 225 226 225 225 222 225 223 221 225 227 222 225 218 214 220 205 208 226 240 253 241 348 220 209 218 150 187 193 186 195 190 203 203 198 186 200 208 211 209 216 219 222 225 226 227 227 228 230 231 234 237 239 243 246 247 248 250 252 255
215 217 215 216 214 213 211 210 211 213 212 213 211 210 212 213 214 212 214 214 220 222 219 225 223 225 223 224 223 220 218 225 219 219 220 224 223 225 222 222 225 222 209 221 239 245 240 189 259 296 178 212 204 190 196 187 199 170 199 202 200 205 212 208 209 212 216 221 223 223 225 226 228 229 231 234 236 240 244 245 246 249 251 254 256
221 218 217 215 214 214 215 215 215 217 217 216 213 213 215 214 215 216 217 216 219 220 220 221 221 219 221 221 222 216 216 222 220 220 213 220 218 220 223 216 227 227 215 216 228 236 240 229 201 201 199 197 206 194 196 189 180 180 193 205 200 196 206 203 212 214 209 216 222 227 226 223 224 223 222 224 227 232 236 240 246 250 253 255 255
223 224 216 216 216 215 218 219 215 216 218 219 217 214 214 214 218 221 221 221 221 222 222 221 218 214 218 220 221 215 212 218 219 217 216 214 214 222 224 218 218 221 220 215 218 236 234 240 212 208 200 175 215 116 155 137 161 183 203 196 190 205 204 207 216 223 209 209 219 226 227 228 227 226 225 225 226 228 231 237 243 248 250 252 255
225 222 227 222 223 219 221 220 219 217 217 216 218 218 218 215 217 221 221 221 221 221 221 220 215 214 215 217 217 211 211 219 217 216 212 212 212 215 220 221 223 223 221 213 220 222 226 224 213 202 143 147 124 141 158 151 145 168 175 199 205 211 215 216 219 217 214 224 222 223 224 224 225 227 228 227 229 229 231 235 239 242 246 249 252
229 225 224 223 222 226 226 223 220 220 216 212 213 216 217 217 220 221 221 219 218 218 217 216 214 213 215 216 215 208 209 213 218 217 215 218 216 216 217 217 219 218 217 217 215 218 224 226 197 173 185 175 152 171 195 174 162 176 204 225 231 222 209 233 229 206 190 202 222 230 225 227 227 228 229 230 231 234 235 237 240 241 244 247 250
228 229 226 227 228 224 228 224 223 221 219 213 214 214 215 217 219 221 222 222 220 219 217 215 216 216 218 219 217 213 214 214 216 214 214 216 212 218 217 218 217 212 213 214 209 211 215 222 219 189 175 194 164 186 190 166 175 189 193 191 239 216 216 216 232 192 180 213 222 210 213 215 223 230 234 234 236 238 240 241 243 244 245 247 251
227 225 222 220 224 216 224 222 224 219 222 220 220 221 220 221 221 224 224 223 224 223 222 221 218 218 219 221 222 219 218 216 215 217 212 217 215 220 216 217 215 210 213 212 209 209 213 216 206 187 174 160 145 89 101 126 144 264 214 195 215 210 214 207 213 183 192 189 220 224 221 211 218 225 230 235 239 242 245 248 251 251 249 250 255
227 224 219 216 218 221 223 225 228 219 221 225 223 223 227 229 227 229 228 227 227 229 230 229 228 228 227 225 223 222 221 221 216 213 211 210 212 219 216 211 209 203 212 212 210 205 211 201 204 148 150 167 185 154 164 183 202 208 170 190 230 217 159 182 209 196 188 189 207 207 220 203 212 224 221 237 241 244 251 252 254 257 258 259 262
236 227 220 217 217 223 224 225 226 228 229 229 223 220 218 220 226 230 232 231 228 230 232 234 233 231 231 231 232 227 220 215 213 213 214 213 213 212 207 202 202 204 206 206 204 200 194 194 201 177 181 203 191 196 192 210 179 128 157 181 213 203 153 197 232 204 190 185 188 215 227 191 194 229 213 234 243 224 240 245 246 248 258 261 262
264 264 243 227 227 224 223 224 227 228 231 230 225 220 220 218 219 224 226 229 228 229 230 230 233 230 231 229 230 223 224 224 221 217 214 217 220 221 219 203 199 197 199 197 200 190 192 203 197 188 201 204 205 192 204 185 179 194 189 183 188 161 190 188 228 285 195 173 192 208 247 189 171 214 219 227 235 226 223 227 234 243 245 249 253
263 283 268 250 260 255 250 245 238 237 238 239 231 230 225 224 222 227 232 233 230 230 229 229 231 230 226 225 225 221 212 209 207 219 223 225 222 220 221 216 209 206 197 188 188 190 195 197 193 203 194 208 198 182 195 173 193 189 189 169 183 184 182 196 190 202 202 167 168 174 252 191 170 203 231 233 221 219 212 205 223 235 248 255 264
244 250 252 258 257 254 248 245 244 242 244 237 230 231 230 227 225 224 234 234 234 234 230 229 229 227 219 213 218 217 216 209 209 207 207 224 236 234 229 221 212 206 207 204 194 189 187 194 195 198 201 196 191 202 191 189 161 173 170 183 192 193 196 193 207 167 198 172 137 158 218 258 155 183 224 247 216 208 192 206 220 245 271 285 290
241 242 243 245 250 247 246 248 252 251 248 245 235 235 231 229 227 223 233 236 238 238 233 228 226 225 215 211 215 219 211 205 206 207 207 215 216 220 221 214 213 214 209 204 202 195 181 190 191 202 208 180 196 194 187 155 157 182 179 198 186 190 193 207 187 169 164 164 164 146 87 281 155 151 204 277 207 137 159 184 218 284 325 323 316
248 248 245 242 242 245 248 248 253 253 250 248 245 242 236 231 230 226 235 236 238 239 238 234 231 225 215 212 209 209 202 205 202 201 208 208 204 207 207 208 208 203 203 203 200 194 191 195 198 206 189 190 194 171 167 174 179 182 183 187 185 186 156 86 56 62 125 157 130 117 172 239 122 125 234 196 111 147 181 239 62 67 53 30 29
248 254 255 246 249 245 243 243 247 253 253 247 246 244 239 235 229 229 234 237 239 241 241 234 225 220 217 213 215 216 208 207 206 203 205 197 197 200 200 206 207 204 210 216 211 196 181 183 193 192 183 181 173 169 169 175 170 145 124 89 106 118 141 164 180 179 167 200 146 128 121 132 180 122 130 177 132 98 41 73 76 88 80 76 70
248 244 248 250 255 256 252 243 244 253 259 246 241 244 239 234 230 236 234 237 240 241 241 234 228 223 215 207 205 209 210 216 210 203 205 190 196 194 196 198 197 194 206 194 185 162 149 153 160 159 159 162 163 163 167 165 158 151 137 136 170 158 161 183 197 157 209 157 201 129 119 125 190 131 123 212 157 134 104 96 35 78 86 85 73
255 250 250 256 248 246 252 255 247 258 261 250 237 241 237 233 229 238 237 237 243 239 245 236 231 228 222 213 209 207 207 212 204 202 198 188 193 191 190 184 183 192 200 180 135 121 122 121 128 134 139 146 147 148 154 157 157 157 156 177 177 162 185 184 180 172 102 133 187 162 114 189 163 115 127 316 49 44 94 118 95 68 68 67 67
258 261 253 260 265 253 247 251 252 252 264 262 242 242 235 233 230 239 240 241 246 242 236 243 233 231 228 218 214 213 214 213 201 200 194 187 194 188 186 179 191 197 192 169 161 147 146 138 141 136 140 146 145 147 160 162 166 174 179 170 155 172 180 176 147 118 90 232 215 182 131 184 117 196 128 84 71 298 270 54 92 98 81 74 59